Flag for U.S.A. Weather past 2 weeks in Wilmington, North Carolina, U.S.A.

Now
78 °F

Passing clouds.


Feels Like: 81 °F
Forecast: 78 / 95 °F
Wind: 3 mph from Southwest

Location: New Hanover International Airport

Current Time: Aug 5, 2015 at 12:45:57 AM

Latest Report: Aug 5, 2015 at 12:01 AM


Visibility: 10 mi

Pressure: 29.98 "Hg

Humidity: 93%

Dew point: 76 °F

Location of WilmingtonLocation

Historic Weather in Wilmington — Graph

°F

Wilmington temperature yesterday

Maximum temperature yesterday: 83 °F (at 3:53 PM)
Minimum temperature yesterday: 77 °F (at 1:53 PM)
Average temperature yesterday: 80 °F

Past Weeks' High & Low Weather Summary

 TemperatureHumidityPressure
High99 °F (Jul 21, 3:53 PM)97% (Jul 23, 5:53 PM)30.02 "Hg (Jul 23, 5:53 PM)
Low67 °F (Jul 25, 4:53 AM)42% (Jul 21, 3:53 PM)29.71 "Hg (Jul 21, 4:53 PM)
Average80 °F79%29.92 "Hg
* Reported Jul 20 10:53 PM — Aug 4 10:53 PM, Wilmington, Weather by CustomWeather, © 2015

Note: Actual official high and low records may vary slightly from our data, if they occured in-between our weather recording intervals... More about our weather records

Advertising

Wilmington weather history for previous 24 hours

 ConditionsComfort  
Time TempWeatherWind HumidityBarometerVisibility
10:53 PM
Tue, Aug 4
78 °FPassing clouds.3 mph96%29.97 "Hg10 mi
9:53 PM79 °FPassing clouds.5 mph94%29.96 "Hg10 mi
8:53 PM80 °FSunny.6 mph90%29.93 "Hg10 mi
7:53 PM82 °FBroken clouds.7 mph85%29.93 "Hg10 mi
6:53 PM81 °FLight rain. Mostly cloudy.5 mph88%29.90 "Hg10 mi
5:53 PM82 °FScattered clouds.9 mph85%29.90 "Hg10 mi
4:53 PM82 °FMostly cloudy.7 mph79%29.92 "Hg10 mi
3:53 PM83 °FPassing clouds.7 mph79%29.92 "Hg10 mi
2:53 PM78 °FMostly cloudy.9 mph87%29.96 "Hg10 mi
1:53 PM77 °FLight rain. More clouds than sun.9 mph88%29.98 "Hg9 mi
12:53 PM82 °FBroken clouds.15 mph74%29.98 "Hg10 mi
12:04 PM81 °FBroken clouds.14 mph77%30.00 "Hg10 mi
11:53 AM82 °FPartly sunny.16 mph77%30.00 "Hg10 mi
10:53 AM80 °FScattered clouds.14 mph81%29.99 "Hg10 mi
9:53 AM80 °FBroken clouds.12 mph87%29.99 "Hg10 mi
8:53 AM80 °FBroken clouds.6 mph90%29.98 "Hg10 mi
7:53 AM80 °FLight rain. Fog.7 mph87%29.98 "Hg6 mi
6:53 AM79 °FOvercast.9 mph88%29.98 "Hg10 mi
5:53 AM79 °FPassing clouds.7 mph88%29.96 "Hg10 mi
4:53 AM80 °FClear.6 mph87%29.95 "Hg10 mi
3:53 AM79 °FClear.5 mph90%29.97 "Hg10 mi
2:53 AM80 °FClear.5 mph87%29.95 "Hg10 mi
1:53 AM80 °FClear.5 mph87%29.97 "Hg10 mi
12:53 AM79 °FPassing clouds.6 mph90%29.98 "Hg10 mi
Weather by CustomWeather, © 2015

See weather overviewHow to use our weather pages